Location: Bretagne
(43.8474°N, 0.4650°W)
Time: 12:43:19
(UTC+00:00)

Radarsat Rocket - Pass Details

Date: 30 April 2026
Orbit: 933 x 1491 km, 100.5° (Epoch: 12 May)

Event Time Altitude Azimuth Distance (km) Brightness Sun altitude
Rises 20:51:57 0° 222° (SW) 4,603 7.5 -17.3°
Reaches altitude 10° 20:56:45 10° 245° (WSW) 3,632 7.2 -18.0°
Maximum altitude 21:00:51 14° 274° (W) 3,294 7.4 -18.5°
Drops below altitude 10° 21:04:55 10° 303° (WNW) 3,572 8.1 -19.0°
Sets 21:09:37 0° 327° (NNW) 4,476 9.0 -19.6°
